Weather History for Warsaw, IN

Change the Weather History Date:

Friday, November 26, 2010

  Actual Average Record
Temperature  
Mean Temperature 26 °F -  
Max Temperature 31 °F 48 °F 63 °F (1990)
Min Temperature 20 °F 30 °F 1 °F (1950)
Degree Days  
Heating Degree Days 40    
Moisture  
Dew Point 15 °F    
Average Humidity 63    
Maximum Humidity 75    
Minimum Humidity 54    
Precipitation  
Precipitation 0.00 in - - ()
Sea Level Pressure  
Sea Level Pressure 29.87 in    
Wind  
Wind Speed 17 mph (WSW)    
Max Wind Speed 23 mph    
Max Gust Speed 32 mph    
Visibility 10 miles    
Events      
Averages and records for this station are not official NWS values.
T = Trace of Precipitation, MM = Missing Value Source: NWS Daily Summary

Daily Weather History Graph

Daily Weather History Graph

Search for Another Location

Airport:

Trip Planner

Search our weather history database for the weather conditions in past years. The results will help you decide how hot, cold, wet, or windy it might be!

Date:

Astronomy

Nov. 26, 2010 Rise Set
Actual Time 7:44 AM EST 5:16 PM EST
Civil Twilight 7:13 AM EST 5:47 PM EST
Nautical Twilight 6:39 AM EST 6:21 PM EST
Astronomical Twilight 6:06 AM EST 6:54 PM EST
Moon 10:25 PM EST (11/26) 11:49 AM EST (11/26)
Length of Visible Light 10h 33m
Length of Day
9h 32m
Waning Gibbous, 73% of the Moon is Illuminated
Nov 26
Waning Gibbous
Nov 28
Last Quarter
Dec 5
New
Dec 13
First Quarter
Dec 21
Full

Hourly Weather History & Observations

Time (EST) Temp. Windchill Dew Point Humidity Pressure Visibility Wind Dir Wind Speed Gust Speed Precip Events Conditions
12:05 AM 27.3 °F 14.0 °F 17.4 °F 66% 29.85 in 10.0 mi West 19.6 mph 23.0 mph N/A   Clear
12:25 AM 26.4 °F 13.6 °F 15.6 °F 64% 29.85 in 10.0 mi West 17.3 mph 21.9 mph N/A   Clear
12:45 AM 25.5 °F 11.6 °F 15.1 °F 65% 29.85 in 10.0 mi West 19.6 mph 27.6 mph N/A   Clear
1:05 AM 25.2 °F 11.6 °F 14.4 °F 64% 29.87 in 10.0 mi West 18.4 mph 28.8 mph N/A   Clear
1:25 AM 24.4 °F 11.5 °F 13.5 °F 63% 29.87 in 10.0 mi West 16.1 mph - N/A   Clear
1:45 AM 23.2 °F 7.5 °F 12.4 °F 63% 29.88 in 10.0 mi West 23.0 mph 32.2 mph N/A   Clear
2:05 AM 22.6 °F 8.3 °F 11.5 °F 62% 29.88 in 10.0 mi West 18.4 mph 24.2 mph N/A   Clear
2:25 AM 22.5 °F 8.9 °F 11.5 °F 63% 29.89 in 10.0 mi West 16.1 mph 25.3 mph N/A   Clear
2:45 AM 22.6 °F 10.1 °F 11.3 °F 62% 29.90 in 10.0 mi West 13.8 mph 26.5 mph N/A   Clear
3:45 AM 22.1 °F 8.9 °F 12.9 °F 68% 29.90 in 10.0 mi West 15.0 mph 23.0 mph N/A   Clear
4:05 AM 22.1 °F 8.9 °F 12.9 °F 68% 29.90 in 10.0 mi West 15.0 mph - N/A   Clear
4:25 AM 21.7 °F 9.6 °F 13.5 °F 70% 29.90 in 10.0 mi West 12.7 mph 17.3 mph N/A   Clear
4:45 AM 21.9 °F 7.8 °F 12.9 °F 68% 29.90 in 10.0 mi West 17.3 mph 21.9 mph N/A   Clear
5:05 AM 21.7 °F 8.5 °F 12.7 °F 68% 29.90 in 10.0 mi West 15.0 mph 20.7 mph N/A   Clear
5:25 AM 21.6 °F 8.2 °F 12.2 °F 67% 29.90 in 10.0 mi West 15.0 mph 21.9 mph N/A   Clear
6:05 AM 21.2 °F 8.3 °F 12.4 °F 69% 29.90 in 10.0 mi West 13.8 mph 19.6 mph N/A   Clear
6:45 AM 21.0 °F 8.1 °F 11.7 °F 67% 29.90 in 10.0 mi West 13.8 mph 20.7 mph N/A   Clear
7:05 AM 20.5 °F 8.0 °F 12.7 °F 72% 29.90 in 10.0 mi West 12.7 mph 17.3 mph N/A   Clear
7:25 AM 20.3 °F 7.2 °F 13.1 °F 74% 29.90 in 10.0 mi West 13.8 mph 18.4 mph N/A   Clear
7:45 AM 20.3 °F 7.7 °F 13.5 °F 75% 29.90 in 10.0 mi West 12.7 mph 19.6 mph N/A   Clear
8:05 AM 20.7 °F 6.6 °F 13.1 °F 73% 29.90 in 10.0 mi West 16.1 mph 20.7 mph N/A   Clear
8:25 AM 21.2 °F 7.8 °F 12.7 °F 70% 29.91 in 10.0 mi West 15.0 mph - N/A   Clear
8:45 AM 21.7 °F 8.0 °F 12.9 °F 69% 29.91 in 10.0 mi West 16.1 mph 21.9 mph N/A   Clear
9:05 AM 22.5 °F 8.9 °F 13.1 °F 67% 29.92 in 10.0 mi West 16.1 mph 23.0 mph N/A   Clear
9:25 AM 23.0 °F 9.2 °F 12.9 °F 65% 29.91 in 10.0 mi WSW 17.3 mph 23.0 mph N/A   Clear
9:45 AM 23.9 °F 9.5 °F 12.7 °F 62% 29.91 in 10.0 mi WSW 19.6 mph 23.0 mph N/A   Clear
10:05 AM 24.3 °F 11.7 °F 12.0 °F 60% 29.91 in 10.0 mi West 15.0 mph 26.5 mph N/A   Clear
10:25 AM 24.8 °F 11.5 °F 12.9 °F 61% 29.90 in 10.0 mi WSW 17.3 mph 25.3 mph N/A   Clear
10:45 AM 25.9 °F 12.5 °F 14.2 °F 61% 29.90 in 10.0 mi WSW 18.4 mph 23.0 mph N/A   Clear
11:05 AM 27.0 °F 14.3 °F 14.9 °F 60% 29.90 in 10.0 mi West 17.3 mph 23.0 mph N/A   Clear
11:45 AM 28.2 °F 17.7 °F 16.3 °F 61% 29.89 in 10.0 mi West 12.7 mph 24.2 mph N/A   Clear
12:05 PM 28.6 °F 16.8 °F 16.7 °F 61% 29.88 in 10.0 mi WSW 16.1 mph 23.0 mph N/A   Scattered Clouds
12:25 PM 28.4 °F 16.2 °F 15.6 °F 59% 29.87 in 10.0 mi West 17.3 mph 25.3 mph N/A   Clear
12:45 PM 29.5 °F 17.2 °F 16.3 °F 58% 29.87 in 10.0 mi WSW 18.4 mph 23.0 mph N/A   Clear
1:05 PM 29.8 °F 18.0 °F 16.7 °F 58% 29.86 in 10.0 mi West 17.3 mph 24.2 mph N/A   Clear
1:25 PM 28.4 °F 17.0 °F 16.3 °F 61% 29.86 in 10.0 mi West 15.0 mph 25.3 mph N/A   Clear
1:45 PM 28.6 °F 17.7 °F 16.5 °F 61% 29.85 in 10.0 mi WSW 13.8 mph 21.9 mph N/A   Clear
2:05 PM 29.7 °F 17.4 °F 16.2 °F 57% 29.84 in 10.0 mi WSW 18.4 mph 27.6 mph N/A   Clear
2:25 PM 29.8 °F 17.7 °F 16.9 °F 59% 29.84 in 10.0 mi WSW 18.4 mph 25.3 mph N/A   Clear
2:45 PM 30.6 °F 19.0 °F 16.3 °F 56% 29.84 in 10.0 mi West 17.3 mph 23.0 mph N/A   Clear
3:05 PM 30.9 °F 20.2 °F 16.3 °F 55% 29.83 in 10.0 mi WSW 15.0 mph 24.2 mph N/A   Clear
3:45 PM 30.7 °F 19.6 °F 15.6 °F 54% 29.81 in 10.0 mi WSW 16.1 mph 20.7 mph N/A   Clear
4:05 PM 30.9 °F 21.2 °F 16.0 °F 54% 29.81 in 10.0 mi WSW 12.7 mph 24.2 mph N/A   Clear
4:25 PM 30.7 °F 20.0 °F 16.3 °F 55% 29.81 in 10.0 mi WSW 15.0 mph 23.0 mph N/A   Clear
4:45 PM 30.4 °F 20.0 °F 16.7 °F 57% 29.81 in 10.0 mi WSW 13.8 mph 23.0 mph N/A   Clear
5:05 PM 30.2 °F 20.8 °F 17.2 °F 59% 29.81 in 10.0 mi WSW 11.5 mph 21.9 mph N/A   Clear
5:25 PM 29.8 °F 19.3 °F 17.4 °F 60% 29.81 in 10.0 mi WSW 13.8 mph 24.2 mph N/A   Clear
5:45 PM 29.7 °F 19.6 °F 18.0 °F 62% 29.80 in 10.0 mi WSW 12.7 mph 19.6 mph N/A   Clear
6:05 PM 29.8 °F 18.9 °F 19.2 °F 65% 29.81 in 10.0 mi WSW 15.0 mph 20.7 mph N/A   Scattered Clouds
6:25 PM 30.2 °F 20.2 °F 20.1 °F 66% 29.81 in 10.0 mi WSW 12.7 mph 20.7 mph N/A   Mostly Cloudy
6:45 PM 30.9 °F 20.7 °F 20.7 °F 66% 29.81 in 10.0 mi WSW 13.8 mph 19.6 mph N/A   Overcast
7:05 PM 31.6 °F 20.7 °F 21.2 °F 65% 29.80 in 10.0 mi WSW 16.1 mph 20.7 mph N/A   Overcast
7:25 PM 31.8 °F 20.6 °F 22.1 °F 67% 29.80 in 10.0 mi WSW 17.3 mph 21.9 mph N/A   Overcast
7:45 PM 32.0 °F 22.5 °F 22.5 °F 68% 29.80 in 10.0 mi WSW 12.7 mph 24.2 mph N/A   Overcast
8:05 PM 32.0 °F 21.2 °F 23.0 °F 69% 29.80 in 10.0 mi WSW 16.1 mph 24.2 mph N/A   Overcast
8:25 PM 32.2 °F 22.3 °F 23.4 °F 70% 29.80 in 10.0 mi WSW 13.8 mph 25.3 mph N/A   Overcast
8:45 PM 32.4 °F 22.5 °F 23.5 °F 70% 29.80 in 10.0 mi WSW 13.8 mph 21.9 mph N/A   Overcast
9:05 PM 32.5 °F 21.9 °F 23.7 °F 70% 29.80 in 10.0 mi West 16.1 mph 20.7 mph N/A   Overcast
9:25 PM 32.5 °F 22.3 °F 23.5 °F 69% 29.81 in 10.0 mi West 15.0 mph 23.0 mph N/A   Overcast
9:45 PM 32.9 °F 21.0 °F 22.5 °F 65% 29.81 in 10.0 mi West 20.7 mph 29.9 mph N/A   Overcast
10:05 PM 32.2 °F 21.4 °F 22.3 °F 67% 29.81 in 10.0 mi West 16.1 mph 29.9 mph N/A   Overcast
10:25 PM 32.0 °F 20.8 °F 22.5 °F 68% 29.81 in 10.0 mi West 17.3 mph 27.6 mph N/A   Overcast
10:45 PM 31.5 °F 20.1 °F 22.1 °F 68% 29.80 in 10.0 mi West 17.3 mph 27.6 mph N/A   Mostly Cloudy
11:05 PM 31.6 °F 20.4 °F 22.8 °F 70% 29.81 in 10.0 mi West 17.3 mph 24.2 mph N/A   Mostly Cloudy
11:25 PM 31.1 °F 18.9 °F 22.6 °F 71% 29.81 in 10.0 mi West 19.6 mph 28.8 mph N/A   Overcast
11:45 PM 30.2 °F 18.5 °F 22.6 °F 73% 29.81 in 10.0 mi West 17.3 mph 23.0 mph N/A   Mostly Cloudy